Location: Ellerstadt
(49.4644°N, 8.2615°E)
Time: 00:55:05
(UTC+00:00)

ISS - Pass Details

Date: 19 May 2021
Orbit: 417 x 422 km, 51.6° (Epoch: 15 June)

Event Time Altitude Azimuth Distance (km) Brightness Sun altitude
Rises 00:05:41 0° 289° (WNW) 2,373 0.2 -20.1°
Reaches altitude 10° 00:07:48 10° 286° (WNW) 1,507 -0.9 -20.1°
Enters shadow 00:09:09 22° 281° (W) 974 -2.0 -20.0°
